Weather History for La Porte, IN

Change the Weather History Date:

Thursday, June 20, 2013

  Actual Average (KVPZ) Record (KVPZ)
Temperature  
Mean Temperature 68 °F 71 °F  
Max Temperature 83 °F 81 °F 94 °F (2002)
Min Temperature 54 °F 60 °F 46 °F (2004)
Degree Days  
Heating Degree Days 0 1  
Month to date heating degree days 38  
Since 1 June heating degree days 38  
Since 1 July heating degree days 6317  
Cooling Degree Days 4 6  
Month to date cooling degree days 92  
Year to date cooling degree days 139  
Since 1 June cooling degree days 92  
Growing Degree Days 18 (Base 50)    
Moisture  
Dew Point 56 °F    
Average Humidity 62    
Maximum Humidity 87    
Minimum Humidity 39    
Precipitation  
Precipitation 0.00 in 0.11 in 2.08 in (2000)
Month to date precipitation 2.52  
Year to date precipitation 15.50  
Sea Level Pressure  
Sea Level Pressure 30.16 in    
Wind  
Wind Speed 2 mph (SE)    
Max Wind Speed 8 mph    
Max Gust Speed -    
Visibility 10 miles    
Events      
T = Trace of Precipitation, MM = Missing Value Source: NWS Daily Summary

Daily Weather History Graph

Daily Weather History Graph

Search for Another Location

Airport:

Trip Planner

Search our weather history database for the weather conditions in past years. The results will help you decide how hot, cold, wet, or windy it might be!

Date:

Astronomy

Jun. 20, 2013 Rise Set
Actual Time 5:12 AM CDT 8:24 PM CDT
Civil Twilight 4:38 AM CDT 8:58 PM CDT
Nautical Twilight 3:54 AM CDT 9:42 PM CDT
Astronomical Twilight 3:02 AM CDT 10:34 PM CDT
Moon 5:24 PM CDT (6/20) 2:40 AM CDT (6/20)
Length of Visible Light 16h 19m
Length of Day
15h 11m
Waxing Gibbous, 89% of the Moon is Illuminated
Jun 20
Waxing Gibbous
Jun 23
Full
Jun 29
Last Quarter
Jul 8
New
Jul 15
First Quarter

Hourly Weather History & Observations

Time (CDT) Temp. Heat Index Dew Point Humidity Pressure Visibility Wind Dir Wind Speed Gust Speed Precip Events Conditions
12:15 AM 57.6 °F - 48.2 °F 71% 30.14 in 10.0 mi Calm Calm - N/A   Scattered Clouds
12:35 AM 57.9 °F - 48.2 °F 70% 30.14 in 10.0 mi Calm Calm - N/A   Scattered Clouds
12:55 AM 56.1 °F - 49.1 °F 77% 30.14 in 10.0 mi Calm Calm - N/A   Scattered Clouds
1:15 AM 57.2 °F - 48.2 °F 72% 30.14 in 10.0 mi Calm Calm - N/A   Scattered Clouds
1:35 AM 57.2 °F - 47.8 °F 71% 30.15 in 10.0 mi Calm Calm - N/A   Scattered Clouds
1:55 AM 57.4 °F - 47.3 °F 69% 30.15 in 10.0 mi Calm Calm - N/A   Scattered Clouds
2:15 AM 56.8 °F - 48.0 °F 72% 30.16 in 10.0 mi Calm Calm - N/A   Mostly Cloudy
2:35 AM 56.3 °F - 50.9 °F 82% 30.15 in 10.0 mi Calm Calm - N/A   Mostly Cloudy
2:55 AM 55.9 °F - 50.5 °F 82% 30.15 in 10.0 mi Calm Calm - N/A   Mostly Cloudy
3:15 AM 55.4 °F - 50.9 °F 85% 30.15 in 10.0 mi Calm Calm - N/A   Scattered Clouds
3:35 AM 55.6 °F - 50.9 °F 84% 30.16 in 10.0 mi Calm Calm - N/A   Mostly Cloudy
3:55 AM 55.0 °F - 51.1 °F 86% 30.16 in 10.0 mi Calm Calm - N/A   Scattered Clouds
4:15 AM 54.9 °F - 50.7 °F 86% 30.16 in 10.0 mi Calm Calm - N/A   Scattered Clouds
4:35 AM 56.1 °F - 48.7 °F 76% 30.16 in 10.0 mi Calm Calm - N/A   Scattered Clouds
4:55 AM 54.5 °F - 50.2 °F 85% 30.17 in 10.0 mi Calm Calm - N/A   Scattered Clouds
5:15 AM 55.2 °F - 50.0 °F 83% 30.17 in 10.0 mi Calm Calm - N/A   Clear
5:35 AM 54.9 °F - 50.2 °F 84% 30.17 in 10.0 mi Calm Calm - N/A   Clear
5:55 AM 55.8 °F - 51.8 °F 87% 30.17 in 10.0 mi Calm Calm - N/A   Clear
6:15 AM 57.7 °F - 53.4 °F 85% 30.17 in 10.0 mi Calm Calm - N/A   Clear
6:35 AM 59.5 °F - 52.7 °F 78% 30.18 in 10.0 mi Calm Calm - N/A   Clear
6:55 AM 61.7 °F - 54.1 °F 76% 30.18 in 10.0 mi Calm Calm - N/A   Clear
7:15 AM 63.9 °F - 52.9 °F 67% 30.18 in 10.0 mi SE 3.5 mph - N/A   Clear
7:35 AM 66.0 °F - 53.8 °F 65% 30.19 in 10.0 mi SE 3.5 mph - N/A   Clear
7:55 AM 67.3 °F - 54.5 °F 63% 30.19 in 10.0 mi Calm Calm - N/A   Clear
8:15 AM 68.9 °F - 54.5 °F 60% 30.19 in 10.0 mi Calm Calm - N/A   Clear
8:35 AM 69.8 °F - 54.0 °F 57% 30.20 in 10.0 mi SE 4.6 mph - N/A   Mostly Cloudy
8:55 AM 71.2 °F - 55.6 °F 58% 30.20 in 10.0 mi Calm Calm - N/A   Scattered Clouds
9:15 AM 72.9 °F - 54.3 °F 52% 30.20 in 10.0 mi Calm Calm - N/A   Clear
9:35 AM 73.0 °F - 55.0 °F 53% 30.19 in 10.0 mi ESE 5.8 mph - N/A   Clear
9:55 AM 74.7 °F - 55.4 °F 51% 30.19 in 10.0 mi SSW 3.5 mph - N/A   Clear
10:15 AM 75.6 °F - 55.2 °F 49% 30.19 in 10.0 mi SSW 4.6 mph - N/A   Clear
10:35 AM 77.4 °F - 54.3 °F 45% 30.20 in 10.0 mi SE 6.9 mph - N/A   Clear
10:55 AM 78.3 °F - 54.1 °F 43% 30.20 in 10.0 mi South 3.5 mph - N/A   Scattered Clouds
11:15 AM 78.3 °F - 52.2 °F 40% 30.19 in 10.0 mi SE 3.5 mph - N/A   Mostly Cloudy
11:35 AM 78.6 °F - 51.8 °F 39% 30.19 in 10.0 mi SSE 4.6 mph - N/A   Mostly Cloudy
11:55 AM 77.4 °F - 54.3 °F 45% 30.19 in 10.0 mi East 3.5 mph - N/A   Mostly Cloudy
12:15 PM 77.2 °F - 56.1 °F 48% 30.19 in 10.0 mi Calm Calm - N/A   Overcast
12:35 PM 77.9 °F - 56.7 °F 48% 30.19 in 10.0 mi Calm Calm - N/A   Overcast
12:55 PM 78.3 °F - 57.9 °F 49% 30.19 in 10.0 mi Calm Calm - N/A   Overcast
1:15 PM 79.2 °F - 58.6 °F 49% 30.19 in 10.0 mi South 4.6 mph - N/A   Mostly Cloudy
1:35 PM 80.4 °F 80.9 °F 58.3 °F 47% 30.18 in 10.0 mi Calm Calm - N/A   Scattered Clouds
1:55 PM 80.4 °F 80.9 °F 58.3 °F 47% 30.17 in 10.0 mi Calm Calm - N/A   Clear
2:15 PM 81.5 °F 81.5 °F 57.6 °F 44% 30.17 in 10.0 mi ENE 4.6 mph - N/A   Clear
2:35 PM 81.5 °F 81.1 °F 55.6 °F 41% 30.17 in 10.0 mi Calm Calm - N/A   Clear
2:55 PM 81.1 °F 81.3 °F 58.1 °F 45% 30.16 in 10.0 mi East 5.8 mph - N/A   Scattered Clouds
3:15 PM 82.4 °F 81.9 °F 56.7 °F 41% 30.16 in 10.0 mi ENE 6.9 mph - N/A   Scattered Clouds
3:35 PM 83.3 °F 82.8 °F 57.4 °F 41% 30.16 in 10.0 mi East 5.8 mph - N/A   Scattered Clouds
3:55 PM 82.9 °F 82.4 °F 56.8 °F 41% 30.15 in 10.0 mi South 5.8 mph - N/A   Scattered Clouds
4:15 PM 83.3 °F 82.9 °F 57.7 °F 42% 30.14 in 10.0 mi SE 5.8 mph - N/A   Clear
4:35 PM 83.3 °F 83.1 °F 58.6 °F 43% 30.14 in 10.0 mi South 8.1 mph - N/A   Clear
4:55 PM 82.6 °F 82.6 °F 59.0 °F 45% 30.14 in 10.0 mi SSE 6.9 mph - N/A   Clear
5:15 PM 82.2 °F 82.3 °F 59.2 °F 45% 30.14 in 10.0 mi ESE 3.5 mph - N/A   Clear
5:35 PM 82.4 °F 82.7 °F 60.1 °F 47% 30.14 in 10.0 mi ESE 6.9 mph - N/A   Clear
5:55 PM 81.7 °F 82.0 °F 59.9 °F 47% 30.13 in 10.0 mi SSE 3.5 mph - N/A   Scattered Clouds
6:15 PM 81.0 °F 81.8 °F 61.3 °F 51% 30.13 in 10.0 mi ESE 4.6 mph - N/A   Clear
6:35 PM 81.0 °F 81.7 °F 61.0 °F 50% 30.13 in 10.0 mi SSE 4.6 mph - N/A   Clear
6:55 PM 80.2 °F 81.3 °F 61.9 °F 53% 30.13 in 10.0 mi SE 6.9 mph - N/A   Clear
7:15 PM 79.5 °F - 62.1 °F 55% 30.12 in 10.0 mi SSE 6.9 mph - N/A   Clear
7:35 PM 78.8 °F - 61.9 °F 56% 30.12 in 10.0 mi SE 4.6 mph - N/A   Clear
7:55 PM 77.5 °F - 61.9 °F 58% 30.12 in 10.0 mi SE 4.6 mph - N/A   Clear
8:15 PM 76.5 °F - 62.1 °F 61% 30.13 in 10.0 mi Calm Calm - N/A   Clear
8:35 PM 74.5 °F - 62.6 °F 66% 30.13 in 10.0 mi ESE 3.5 mph - N/A   Clear
8:55 PM 72.1 °F - 64.4 °F 77% 30.13 in 10.0 mi ESE 3.5 mph - N/A   Clear
9:15 PM 72.0 °F - 63.0 °F 73% 30.14 in 10.0 mi ESE 3.5 mph - N/A   Clear
9:35 PM 71.6 °F - 62.8 °F 74% 30.14 in 10.0 mi ESE 3.5 mph - N/A   Clear
9:55 PM 70.9 °F - 63.5 °F 77% 30.15 in 10.0 mi East 3.5 mph - N/A   Clear
10:15 PM 70.2 °F - 63.5 °F 79% 30.15 in 10.0 mi Calm Calm - N/A   Clear
10:35 PM 69.8 °F - 63.5 °F 80% 30.16 in 10.0 mi Calm Calm - N/A   Clear
10:55 PM 70.7 °F - 63.5 °F 78% 30.16 in 10.0 mi Calm Calm - N/A   Clear
11:15 PM 70.7 °F - 63.7 °F 78% 30.16 in 10.0 mi SE 3.5 mph - N/A   Clear
11:35 PM 69.1 °F - 63.5 °F 82% 30.16 in 10.0 mi Calm Calm - N/A   Clear
11:55 PM 68.0 °F - 63.3 °F 85% 30.17 in 10.0 mi Calm Calm - N/A   Clear